Temp
9 9 10 10 10 10 10 10 10 11 12 13 12 12 12 13 13 13 12 13 14 14 16 17 18 18 19 18 18 16 15 15 17 18 18 18 18 17 18 18 18 19 19 18 19
9 8 8 8 9 9 10 10 10 10 11 12 12 12 13 13 14 12 13 13 14 14 16 16 17 18 16 17 16 15 14 17 16 17 17 17 18 17 18 16 18 19 18 18 18
9 9 8 8 8 9 9 9 11 11 12 12 11 12 13 13 13 12 12 13 14 15 16 16 17 18 17 16 16 17 15 15 15 16 17 17 17 16 17 18 17 18 18 17 18
8 9 8 8 8 9 9 9 11 11 11 12 11 13 13 13 12 12 12 13 15 16 17 17 17 17 15 16 17 15 15 16 15 15 16 16 15 16 16 17 16 17 17 18 16
8 8 8 8 8 9 9 9 10 10 11 11 12 12 13 10 10 12 14 14 16 16 16 16 17 16 15 16 16 15 15 15 15 15 15 15 15 15 14 14 14 15 17 17 15
8 8 8 8 8 8 8 9 10 10 10 10 11 12 12 10 11 12 14 15 16 16 15 15 15 16 15 15 15 15 14 14 15 15 15 15 14 14 16 16 16 16 17 15 15
8 8 8 8 8 8 10 9 9 10 9 11 12 13 11 10 12 13 14 14 16 16 14 15 15 16 15 15 15 14 14 15 15 15 15 14 15 13 14 16 17 17 16 14 13
7 7 7 9 9 9 10 9 9 10 11 11 13 14 10 12 13 14 14 15 15 16 16 16 17 14 14 14 15 15 13 14 15 15 15 15 16 16 15 15 15 15 14 12 12
8 8 8 8 8 8 9 9 9 10 11 12 13 11 10 13 13 14 14 14 15 16 16 16 16 13 13 11 11 11 14 15 15 15 15 15 15 16 15 14 13 13 13 12 11
8 9 9 8 8 8 8 9 10 10 10 11 11 10 11 12 12 13 14 14 14 14 14 13 9 9 8 7 10 14 15 16 16 14 14 13 12 13 13 13 13 14 11 10 10
8 9 9 9 8 9 10 10 9 9 9 9 9 10 11 12 12 13 14 14 14 13 12 11 7 7 11 12 13 14 14 14 14 14 13 12 12 13 13 13 12 10 9 10 10
9 9 9 9 9 9 9 7 7 9 9 9 10 10 11 11 12 12 14 14 13 12 13 8 8 12 13 13 12 13 13 12 12 14 13 12 12 13 13 13 13 10 9 9 9
8 9 9 9 10 9 8 7 8 9 9 10 10 10 11 12 12 12 12 13 12 11 11 9 11 13 13 11 11 11 11 12 11 11 12 11 12 14 15 12 11 10 9 9 9
9 9 9 9 10 8 8 9 8 8 9 9 11 12 13 13 12 13 13 13 12 10 10 10 12 13 12 12 10 13 13 13 12 9 9 12 10 12 13 13 11 10 9 9 8
10 10 10 10 10 9 9 9 8 9 9 11 11 14 13 12 13 13 14 13 12 12 11 11 12 12 12 11 12 12 13 12 12 11 8 10 8 11 12 13 11 9 8 8 8
11 10 10 10 10 9 9 8 8 7 8 11 12 13 13 13 13 13 13 12 13 11 10 11 12 12 12 13 13 12 12 12 13 10 6 8 9 11 13 13 12 11 9 8 8
10 10 10 10 10 10 9 8 6 6 10 11 12 13 13 12 13 13 12 12 9 8 6 10 12 12 12 12 12 12 9 6 8 11 9 10 7 10 13 13 13 11 9 7 7
11 11 11 11 10 9 8 7 7 8 10 12 13 13 12 13 13 13 12 8 12 10 7 6 9 12 12 12 13 12 10 6 10 7 8 7 7 11 12 12 11 10 8 6 7
11 11 11 11 10 9 7 6 6 8 12 12 13 11 12 13 13 13 13 11 12 12 10 6 9 12 12 13 13 13 10 11 7 4 5 6 8 11 11 11 10 9 7 6 6
11 11 11 11 10 9 6 8 10 12 13 13 12 13 12 13 13 13 13 13 13 13 12 11 9 12 13 13 13 13 12 10 7 8 9 7 9 10 11 10 10 9 8 7 6
11 9 12 11 10 7 6 9 12 12 12 13 12 13 13 13 13 13 13 13 13 13 13 13 10 11 12 11 10 10 11 11 10 9 9 9 8 9 11 11 11 10 9 7 6
9 9 12 10 8 5 6 11 13 12 13 12 13 14 13 13 14 14 13 14 13 13 13 13 10 9 10 12 11 11 11 10 9 11 8 8 9 12 12 12 11 11 9 7 6
8 9 11 10 7 5 11 12 13 12 12 13 13 14 14 14 14 14 13 13 13 13 12 12 10 7 10 11 12 12 11 11 11 9 9 9 11 12 12 12 11 10 9 8 7
8 8 8 7 7 10 12 12 12 12 13 13 13 14 14 14 14 14 13 13 12 13 13 12 9 10 10 13 11 11 11 10 11 7 11 12 14 14 12 11 11 9 8 8 7
6 8 8 7 10 12 12 12 12 13 12 13 13 13 13 13 13 13 13 12 12 12 12 10 9 8 9 9 10 11 11 11 10 11 10 14 12 14 13 12 11 10 10 9 7
8 9 7 8 10 12 11 13 13 13 12 13 13 13 13 13 13 13 13 12 11 10 10 9 8 9 6 9 9 9 10 10 11 11 11 12 12 14 14 13 10 10 10 10 9
8 8 8 8 9 10 11 13 13 13 13 13 12 12 12 12 12 11 11 11 12 9 9 9 7 7 8 8 8 8 11 11 10 9 11 10 12 13 11 11 11 11 10 10 9
Height
760 752 758 763 769 769 772 773 774 775 774 777 780 785 788 790 793 794 798 802 800 798 796 795 795 797 799 802 803 806 828 837 830 828 830 824 825 825 823 824 823 822 824 827 827
764 761 755 765 768 771 774 774 774 776 775 779 779 787 789 791 793 797 804 802 799 799 797 797 798 799 805 805 808 815 833 830 828 826 827 826 826 827 826 830 826 825 825 826 825
767 767 767 769 772 773 776 775 775 775 777 777 782 787 789 791 794 803 802 801 800 799 797 798 799 800 808 809 813 815 827 827 829 827 825 827 828 830 829 829 827 827 825 823 823
772 771 773 774 775 775 777 776 776 776 775 776 783 788 791 793 805 805 802 801 799 799 798 798 799 805 814 817 813 824 825 824 828 828 827 830 831 832 829 825 825 825 824 822 822
778 777 777 777 777 778 779 778 779 779 782 782 785 789 793 799 808 805 803 800 799 799 800 800 803 807 816 817 817 822 827 829 829 829 830 830 832 833 829 824 823 824 823 822 822
782 780 782 780 780 780 780 780 781 781 783 784 789 791 795 808 809 806 803 802 800 801 801 802 805 805 815 821 822 824 828 832 831 831 831 832 832 832 823 820 820 821 821 821 823
785 785 784 784 784 783 781 781 783 785 787 789 794 794 803 813 809 807 805 804 803 804 804 806 806 808 814 823 823 827 833 833 834 832 832 833 831 834 824 821 821 820 821 824 825
789 787 788 787 786 784 784 784 786 790 791 791 793 795 811 811 809 808 808 807 806 806 807 808 807 811 818 822 827 831 839 843 835 834 833 832 835 823 820 822 823 823 822 825 825
792 792 792 792 791 789 788 790 792 794 795 796 798 798 814 811 811 810 810 810 808 808 809 809 809 821 825 837 849 847 844 838 836 833 834 834 831 821 820 822 823 822 822 823 825
795 795 796 797 796 797 795 796 798 798 800 801 802 804 815 817 814 813 813 812 812 813 814 816 827 840 846 857 868 843 839 836 835 837 834 837 834 825 820 822 822 820 824 824 824
800 799 799 801 802 801 800 800 805 807 809 815 815 815 818 818 817 816 815 814 814 819 827 830 850 864 843 840 838 838 839 840 838 837 839 837 834 817 816 817 817 822 825 824 824
805 804 805 805 806 806 805 807 812 813 816 816 818 820 820 820 820 818 815 817 820 830 828 846 861 844 840 840 842 842 844 851 846 837 840 837 829 814 809 808 809 817 824 825 824
812 810 810 810 810 809 810 812 813 814 819 825 826 825 824 823 824 823 819 820 827 835 837 849 846 841 841 847 850 852 853 851 853 845 840 840 827 813 804 810 813 819 822 823 823
815 815 816 814 816 816 818 818 815 813 825 836 829 824 823 822 826 823 822 824 828 842 843 848 844 842 846 848 853 847 847 847 849 863 867 845 857 822 810 811 817 821 822 823 825
818 819 820 818 818 821 822 820 819 817 839 835 831 825 824 827 828 827 824 823 833 835 841 851 846 845 846 850 846 849 846 848 848 854 872 852 873 825 813 814 817 821 823 823 822
818 819 820 820 820 822 822 822 823 841 857 838 830 828 827 825 828 827 828 827 833 840 844 848 846 846 846 845 846 847 849 848 843 857 892 866 859 827 814 807 809 813 817 819 819
819 819 818 818 819 820 821 825 842 856 842 836 832 828 828 831 830 830 834 837 849 865 880 856 849 846 845 847 847 849 864 897 884 858 873 851 874 828 808 804 804 809 815 817 815
818 818 817 814 814 816 818 829 850 854 842 834 831 830 834 832 832 832 836 854 839 848 870 885 875 847 846 845 846 849 857 897 880 898 876 869 867 820 803 803 804 807 810 812 812
816 816 814 811 811 812 818 845 860 850 832 832 832 838 837 833 833 833 837 843 839 839 856 880 866 844 845 841 843 845 862 854 883 904 906 878 843 810 802 804 806 807 810 811 811
814 814 812 810 810 811 825 839 836 829 827 828 832 830 836 835 836 836 838 836 838 836 838 845 863 844 842 841 841 842 847 866 883 887 872 869 845 821 802 802 801 803 805 806 806
815 816 812 811 811 816 845 842 831 829 828 830 834 832 834 833 834 835 837 836 835 836 836 838 851 850 844 847 848 853 853 852 858 868 870 858 841 805 793 793 795 795 798 801 802
816 824 812 812 824 837 849 830 828 831 831 832 832 830 834 834 832 833 836 833 832 834 839 839 850 863 847 836 838 841 844 849 865 850 863 861 833 789 787 787 789 791 792 794 794
819 820 815 815 839 853 831 830 830 831 831 830 830 828 828 831 834 831 833 831 833 835 839 840 853 879 853 845 836 836 835 836 840 850 850 857 811 786 785 785 787 790 789 788 788
819 833 823 821 830 833 831 831 832 830 830 830 831 828 830 831 829 832 833 833 833 834 835 838 852 850 852 830 833 837 832 832 831 858 823 805 790 780 786 787 785 786 784 783 781
823 833 830 842 832 827 828 830 832 834 833 832 832 832 833 836 834 835 832 835 836 835 839 843 852 853 843 838 835 827 824 824 827 817 826 784 797 763 778 778 778 777 776 776 776
827 829 832 834 830 826 830 828 829 829 832 832 834 832 832 834 832 834 832 837 836 841 843 846 852 845 856 829 829 827 818 816 812 809 802 795 786 766 764 768 774 772 771 769 768
827 829 830 835 833 833 832 825 825 825 827 826 829 831 832 831 830 831 831 831 831 839 845 847 854 856 843 835 834 823 793 794 800 800 793 797 768 763 767 766 765 763 763 763 762
Wind_Speed
12 10 18 17 14 13 12 11 9 5 9 5 19 14 12 14 13 12 13 8 7 6 4 3 3 3 4 3 3 2 4 3 2 5 4 2 2 5 1 2 3 4 4 3 3
13 14 10 18 14 16 13 10 8 7 12 14 13 15 19 23 22 21 11 9 8 8 3 6 3 3 3 2 3 4 4 3 2 2 4 3 3 2 2 5 2 2 2 2 3
10 12 14 12 8 12 11 10 7 5 13 17 22 20 21 10 5 5 16 11 7 7 4 5 4 2 4 4 4 2 4 5 1 2 3 2 2 5 2 1 2 1 4 6 6
18 14 17 16 16 11 11 11 6 9 12 18 28 21 13 3 4 7 16 11 7 7 5 3 3 3 4 4 2 6 5 5 4 2 2 2 3 3 3 4 5 2 4 2 7
18 17 17 14 15 13 11 11 8 12 20 21 24 19 7 7 4 13 13 12 6 7 10 3 4 4 5 5 3 5 3 4 4 4 2 2 2 4 7 9 6 6 6 4 6
15 15 16 13 12 10 11 11 13 16 19 23 21 14 7 8 9 12 11 9 9 9 12 9 3 3 6 4 4 3 6 4 3 1 2 2 2 5 4 1 3 5 5 6 4
15 15 15 14 12 11 11 11 22 19 20 19 18 28 15 3 11 7 10 11 12 7 5 9 3 5 3 4 2 4 5 3 2 1 1 3 2 6 5 3 3 5 6 6 9
12 13 13 12 12 14 13 16 22 21 20 20 21 21 4 10 13 8 7 7 8 8 8 9 9 7 4 3 5 4 4 3 2 2 1 1 6 5 7 5 6 7 6 7 5
13 13 12 13 15 17 15 19 21 23 21 18 14 10 3 7 7 11 10 6 7 9 9 7 6 4 5 5 4 6 2 1 2 2 1 1 6 4 4 2 7 7 5 6 5
12 14 18 22 27 25 29 26 22 16 14 12 7 9 4 2 5 7 6 6 7 4 5 7 6 4 5 5 4 3 3 2 0 3 2 3 13 10 10 6 9 3 6 5 4
16 16 21 18 15 19 14 11 6 6 15 6 5 6 2 3 5 6 8 3 3 6 4 5 7 3 1 1 2 4 3 1 2 1 4 5 9 17 8 8 7 7 6 3 2
20 20 15 13 10 9 7 5 1 5 10 14 8 3 2 3 3 10 8 3 4 4 3 7 3 2 0 4 5 4 2 2 4 2 4 5 15 15 9 5 7 8 5 3 3
15 14 17 16 16 24 21 9 5 4 5 6 1 2 3 4 3 6 5 2 5 5 5 6 3 2 2 5 4 4 4 1 2 7 2 8 8 5 1 5 7 5 4 2 3
16 14 12 10 12 6 6 6 7 9 5 9 6 5 4 2 5 4 4 2 5 5 4 5 2 2 3 2 3 2 1 2 2 5 2 4 5 6 3 5 4 4 2 1 2
14 14 17 10 6 3 3 6 6 4 6 5 5 3 5 4 2 8 6 6 4 4 4 2 2 2 2 3 2 2 1 1 2 1 4 2 2 7 1 5 6 7 5 5 3
6 8 12 4 1 3 1 1 2 5 3 3 3 2 3 3 2 2 4 6 2 5 6 2 1 1 1 1 2 1 2 1 0 3 2 4 3 5 3 5 3 4 5 5 3
9 11 3 3 3 2 3 5 4 6 3 1 2 2 3 4 4 2 3 4 3 5 4 5 1 1 1 3 2 3 5 3 5 3 5 2 2 9 5 4 5 7 7 7 5
10 9 11 11 7 4 6 3 10 4 3 3 1 1 3 3 3 3 2 3 5 5 3 4 5 2 2 2 2 2 4 4 4 2 5 4 6 6 4 6 5 6 6 6 4
6 6 4 4 3 1 4 6 6 6 3 4 2 4 3 2 2 2 2 3 1 1 4 4 4 1 3 1 3 1 1 4 4 2 2 3 7 9 6 4 5 7 6 7 7
3 4 2 3 1 1 5 4 2 1 1 3 3 1 2 1 2 2 3 2 3 2 2 4 3 3 2 1 1 2 3 2 2 1 5 5 6 7 6 10 9 8 9 8 7
1 3 4 1 1 5 4 2 3 3 4 3 2 2 1 2 1 2 3 1 3 2 2 1 3 2 1 5 7 2 2 2 2 4 4 4 6 7 8 9 10 10 8 8 8
2 3 7 2 4 2 2 3 1 2 1 1 1 1 4 3 0 1 4 2 4 4 3 1 3 3 9 4 6 5 7 6 4 4 4 2 7 3 6 6 7 7 8 7 9
2 1 3 4 4 2 1 3 2 1 1 3 2 3 1 1 2 2 3 1 6 4 4 3 1 3 7 5 1 4 5 5 2 2 7 3 6 2 2 2 6 8 8 8 9
3 2 4 4 1 6 3 2 1 1 2 2 2 3 3 1 0 2 2 3 4 3 5 3 3 6 6 4 3 4 6 7 10 3 5 16 20 16 8 7 7 8 10 10 11
3 1 2 0 3 3 2 5 3 1 1 0 2 2 1 2 1 2 1 1 0 2 3 3 4 4 7 10 8 15 15 13 14 16 10 18 15 25 8 10 9 8 8 9 9
3 2 3 0 1 2 2 4 5 3 5 3 3 2 3 4 4 3 2 4 6 1 5 3 4 2 5 12 9 13 15 17 20 20 19 25 29 28 25 15 7 9 7 8 9
4 2 3 3 2 3 2 2 3 3 2 4 4 1 3 5 4 5 5 5 3 8 6 4 2 3 5 5 8 9 11 11 6 6 12 14 20 18 10 8 8 8 8 8 9
Wind_Direction
24 98 146 144 136 127 105 90 84 117 156 160 163 152 138 118 97 79 49 1 339 341 341 351 55 141 117 67 45 87 63 87 141 156 173 8 108 345 285 37 354 11 77 122 96
45 76 49 97 103 97 90 80 75 105 137 147 140 136 127 114 88 56 11 353 357 355 51 28 73 94 50 52 15 74 87 153 303 132 150 109 104 325 62 12 341 45 99 58 22
49 86 109 131 75 82 82 75 60 97 141 138 145 146 145 124 72 353 356 349 353 351 3 326 309 76 67 51 4 60 134 149 29 98 53 85 79 328 99 240 198 262 300 331 8
56 88 101 101 102 77 71 74 67 92 137 132 150 139 144 54 107 333 349 347 355 1 20 94 88 73 86 99 11 100 40 123 169 37 66 81 308 330 220 230 140 322 265 337 0
60 69 77 73 75 76 68 83 95 108 130 151 135 134 99 53 37 356 12 10 40 38 42 52 72 107 119 112 70 78 118 66 94 65 55 40 274 249 257 258 275 270 265 324 307
58 65 75 76 73 59 66 94 122 117 112 126 137 122 67 68 342 0 28 38 39 55 47 43 42 92 89 64 69 82 94 110 62 41 31 21 312 16 287 297 162 170 235 266 304
59 75 73 72 69 63 73 90 131 120 119 124 131 100 61 65 4 46 57 46 54 71 71 38 350 80 98 88 77 116 79 54 355 28 9 57 292 232 245 211 188 222 264 32 98
79 85 74 70 69 71 89 100 112 115 111 108 129 117 92 8 54 72 55 63 70 76 69 36 72 86 59 114 44 66 50 89 282 210 230 101 267 272 193 170 249 279 283 120 105
102 98 76 76 77 86 94 109 99 102 99 101 113 95 75 38 35 40 46 61 64 66 48 40 53 75 38 76 35 13 146 154 280 205 275 133 261 247 185 304 284 284 141 139 102
104 97 91 88 92 91 91 97 95 88 75 68 62 72 337 30 343 0 39 47 58 9 20 41 49 68 34 62 199 177 129 77 144 351 329 265 266 250 263 272 260 234 158 117 77
95 90 103 101 97 91 83 99 29 22 36 50 66 62 38 339 351 23 2 22 48 41 77 23 68 91 113 11 127 113 103 102 311 100 325 244 272 281 259 242 253 184 157 122 44
99 103 92 102 116 68 89 69 6 134 63 33 37 38 315 304 41 355 12 78 68 90 61 29 96 234 21 47 77 56 78 338 289 311 344 305 283 274 280 237 189 161 154 113 354
93 90 89 84 96 83 83 78 74 6 99 34 305 329 305 13 57 349 30 11 83 51 41 111 175 301 93 38 79 34 122 60 229 321 259 322 301 331 3 83 81 97 137 127 20
97 97 91 65 83 54 61 50 12 0 78 350 354 346 347 4 49 340 27 71 50 124 84 85 305 55 77 77 119 141 250 73 35 36 274 33 278 299 238 163 134 161 179 227 310
105 117 83 84 137 64 27 8 12 350 80 305 307 295 312 74 133 357 13 37 83 87 93 240 128 89 87 205 157 171 79 119 192 64 38 333 55 271 132 223 197 217 216 223 252
135 134 123 106 296 138 108 31 69 46 62 307 298 345 34 37 53 42 32 48 91 71 43 99 315 38 48 58 64 95 64 303 289 82 3 248 144 279 215 207 182 183 207 220 259
158 164 238 252 196 223 236 121 52 72 294 348 39 21 62 31 48 63 45 34 91 77 9 351 360 340 76 87 39 70 52 341 351 1 231 342 28 251 271 237 182 196 219 216 227
185 216 284 290 292 261 170 76 65 236 216 246 149 87 84 26 45 49 64 35 37 86 104 125 325 193 168 211 163 179 127 144 233 280 281 357 240 252 246 199 164 190 196 198 220
234 246 266 282 302 266 78 50 170 206 157 120 102 68 15 16 86 73 77 150 175 101 129 130 294 215 197 95 123 285 62 164 108 86 18 250 282 291 190 211 214 225 206 220 223
290 311 286 318 245 162 72 101 74 70 97 74 66 101 102 161 114 130 185 209 161 162 146 210 59 217 196 159 227 178 153 72 7 311 275 280 267 235 218 224 228 238 224 226 225
281 26 12 331 359 48 94 108 82 45 65 98 19 98 120 184 200 186 179 221 177 152 98 96 94 291 92 208 181 123 242 205 132 163 207 294 262 222 216 210 212 233 228 223 222
108 38 350 15 49 37 73 124 125 28 29 304 206 95 161 173 156 128 202 270 169 142 142 196 144 221 220 239 194 185 192 161 144 236 236 192 271 296 253 240 204 230 232 222 217
98 241 355 341 90 3 18 61 51 101 291 355 343 34 71 128 141 150 163 193 165 142 166 179 271 342 339 356 7 215 204 191 163 106 206 176 259 310 13 234 225 235 245 237 228
87 46 337 48 94 122 124 132 82 345 307 340 306 6 28 341 269 217 203 221 188 147 134 108 197 202 205 216 146 222 222 210 201 184 240 231 272 246 254 240 248 247 248 244 226
37 230 193 329 357 94 110 158 134 223 274 243 310 256 178 314 265 253 194 62 55 190 141 144 245 214 253 256 247 252 249 238 221 228 220 268 249 270 251 246 242 247 263 260 239
88 94 13 105 315 82 58 191 177 188 162 218 202 314 210 216 193 221 136 185 206 177 170 183 265 327 269 260 268 270 255 240 241 244 255 261 268 272 276 269 265 256 254 257 250
52 58 97 323 22 87 220 178 180 161 179 177 177 142 259 244 200 224 222 253 219 167 194 170 197 5 273 323 304 283 258 214 194 215 216 237 246 264 265 241 242 251 253 253 252